星链-31448 (STARLINK-31448 )

导读

STARLINK-31448是美国于2024年4月28日发射的星链卫星,隶属于SpaceX打造的星链互联网星座项目。星链星座通过部署近地轨道卫星群,为全球提供高速低延迟互联网服务,该卫星的成功发射进一步扩充了星链星座的在轨卫星规模,助力覆盖范围与服务能力持续提升。

基本信息
目录编号:
59611
目录名称:
STARLINK-31448
国际标识:
2024-080L
轨道中心:
EARTH
卫星名称:
星链-31448
卫星全名:
星链-31448 (STARLINK-31448 )
卫星状态:
在轨 (已飞行860 天)
发射日期:
2024-04-28 UTC
国别 :
美国 (US)
星等 :
--
轨道信息
数据来源 国际轨道数据
星历时间: 2026-09-05T07:43:30+0800
20小时前
查看轨道信息
半长轴: 6861.169km
偏心率: 0.0001127
轨道倾角: 43.004°
近地点辐角 268.640°
升交点赤经 101.902°
平近点角 91.432°
近地点: 482.258km
远地点: 483.806km
周期: 94.266分钟
每日圈数: 15.27586
详细信息
固有亮度:
5
最大亮度:
1.5
卫星平台:
Starlink v2.0 mini
覆盖范围:
全球
运营商:
太空探索技术公司
运营商所在国:
美国
制造商(研发单位):
太空探索技术公司
制造商所在国:
美国
使用方式:
暂无
卫星简介
星链(Starlink)计划是由太空探索技术公司(SpaceX)提出的一个巨型低轨卫星互联网星座项目,计划在2019年至2024年间在太空搭建由约1.2万颗卫星组成的“星链”网络,其中1584颗将部署在地球上空550千米处的近地轨道,并从2020年开始工作。该卫星仍在工作。
2D轨道图
3D轨道图
轨道高度分析图
轨道倾角分析图
轨道综合分析图
查看轨道综合分析图
交会数据列表
事件ID 空间交会对象 最接近时刻(TCA) 交会距离 交会风险概率(CRP) 交会风险指数(CRI) 操作
CDM_260830-155005-961106-978621
2026-08-30T
15:50:44+0000
2.280 km
极远距离
1.779064E-6 低风险 0.4